Temp
5 5 4 4 3 5 7 8 8 6 6 7 6 6 7 6 6 7 7 7 8 8 8 8 8 8 8 8 8 8 8 8 7 8 7 7 7 7 7 8 8 9 9 9 9 9 10 10 10
5 4 4 2 4 7 8 8 7 6 6 6 6 6 6 6 6 6 6 7 7 8 8 7 8 8 8 7 8 8 8 7 8 7 7 7 7 7 7 8 8 9 9 9 9 9 9 10 10
5 4 2 3 4 6 9 8 7 6 5 5 6 6 6 6 6 6 6 6 6 7 8 7 7 7 7 8 7 8 7 7 7 7 7 7 7 7 7 7 8 8 9 9 9 9 9 9 9
4 3 2 3 5 7 7 7 6 6 5 4 5 5 6 6 6 6 6 6 6 6 8 7 7 7 7 7 7 8 7 7 7 7 7 7 7 7 7 7 7 8 8 8 9 9 9 9 9
4 1 2 3 5 6 6 6 6 4 5 4 4 5 4 5 6 6 5 5 6 6 7 7 6 6 6 6 7 7 7 7 7 7 7 7 7 7 7 7 7 7 8 8 8 8 8 9 9
3 1 3 4 5 6 6 4 4 4 3 4 4 4 5 4 6 5 5 5 6 5 6 7 6 6 6 6 6 6 6 6 6 6 6 6 6 6 6 7 7 7 7 7 8 8 8 8 8
2 2 3 5 6 6 5 3 3 3 3 3 5 4 4 4 5 5 5 5 5 5 5 5 6 5 5 6 6 7 6 6 7 6 6 5 6 6 6 6 6 6 7 7 7 7 7 8 8
2 1 3 4 5 5 4 3 2 2 3 3 3 4 3 5 4 5 5 5 5 5 5 6 6 5 5 5 5 5 5 6 6 6 6 6 6 6 7 7 6 6 6 6 6 6 7 7 7
2 1 2 3 4 4 4 1 1 3 3 2 2 3 4 4 4 4 5 5 5 5 5 5 4 5 5 4 5 5 5 5 5 5 5 5 6 6 6 5 6 6 6 6 6 6 6 6 7
1 0 2 3 3 3 2 1 2 2 4 2 3 3 3 3 3 3 4 4 5 4 4 4 5 4 4 4 5 3 4 5 5 5 5 5 5 5 5 5 5 5 5 5 5 6 6 6 6
1 2 1 1 2 2 0 -0 0 1 2 1 1 2 2 3 3 3 3 4 4 4 4 4 4 4 3 4 4 4 3 3 4 4 4 4 4 5 4 4 5 5 5 6 5 5 5 6 6
-1 -1 -1 -0 -0 0 0 -1 -1 -0 0 1 1 2 2 2 3 3 3 3 3 3 4 4 4 3 3 3 3 3 3 2 3 3 2 3 3 3 4 4 4 4 4 4 4 4 5 5 5
-3 -2 -2 -2 -2 -2 -2 -1 -1 -1 -0 1 1 1 1 2 2 2 2 3 3 3 3 3 3 4 3 3 3 3 2 2 2 2 2 2 3 3 3 3 4 4 4 4 4 4 4 5 5
-4 -3 -3 -4 -3 -3 -3 -3 -3 -2 -1 -0 -0 0 1 1 1 2 2 2 3 3 3 3 3 3 3 3 3 3 3 2 2 2 2 2 3 3 3 3 3 3 3 4 4 4 3 3 4
-5 -5 -4 -3 -4 -4 -4 -3 -3 -3 -2 -2 -2 -1 -0 0 1 1 2 2 2 3 3 3 2 2 3 3 3 3 3 3 2 2 2 2 2 1 1 2 3 3 3 3 3 3 4 3 3
-5 -6 -5 -4 -4 -5 -4 -3 -3 -3 -3 -2 -2 -2 -1 -1 -0 0 1 1 2 2 3 2 2 2 2 2 3 3 2 1 2 2 2 1 2 1 1 1 1 1 2 2 3 3 3 3 2
-6 -4 -4 -3 -3 -4 -5 -4 -3 -2 -3 -3 -3 -2 -2 -2 -1 -1 -0 1 1 2 2 1 1 1 1 1 2 2 1 1 1 1 0 -0 0 1 1 1 1 1 1 1 2 3 2 3 3
-5 -4 -4 -3 -3 -5 -4 -5 -4 -3 -3 -4 -4 -3 -3 -2 -2 -2 -1 -0 1 1 1 0 -1 1 1 1 1 0 1 1 1 -0 -0 1 1 1 1 1 1 0 2 2 1 3 3 3 2
-6 -6 -5 -4 -4 -5 -5 -4 -4 -4 -4 -4 -4 -4 -3 -3 -3 -2 -2 -1 -0 0 1 1 -1 -0 0 -0 1 1 1 0 -1 1 -0 0 0 1 0 -0 1 0 2 2 1 2 2 3 3
-7 -7 -7 -6 -6 -6 -6 -5 -6 -6 -5 -5 -5 -5 -5 -4 -3 -3 -2 -2 -1 -0 -0 -1 -2 -1 -0 0 -0 -0 -0 1 0 1 1 1 1 2 1 1 0 0 1 2 2 1 1 1 1
-8 -8 -7 -6 -6 -7 -7 -6 -7 -6 -6 -5 -5 -5 -5 -5 -4 -3 -3 -2 -2 -2 -3 -3 -3 -2 -1 -0 -0 -1 -0 -0 1 1 1 1 2 1 2 1 0 1 0 1 2 3 1 0 1
-8 -8 -8 -8 -7 -7 -7 -6 -5 -7 -6 -6 -6 -6 -5 -5 -5 -4 -3 -3 -3 -4 -3 -3 -3 -2 -1 -1 -1 -1 -2 -0 1 1 1 1 2 2 2 2 1 1 0 -1 -1 -1 1 1 1
-9 -9 -8 -8 -8 -8 -7 -8 -6 -8 -7 -6 -6 -6 -6 -5 -5 -5 -5 -4 -4 -4 -4 -4 -4 -4 -3 -3 -3 -2 -2 -1 0 1 1 1 1 1 1 1 1 1 1 -1 0 -1 -1 -1 1
-10 -10 -9 -9 -9 -9 -8 -8 -6 -7 -8 -7 -6 -7 -7 -6 -6 -5 -5 -5 -5 -5 -5 -4 -4 -3 -3 -3 -2 -2 -1 -1 -0 0 0 0 1 1 1 1 1 1 1 1 -1 -1 -2 -1 -1
-10 -10 -8 -8 -8 -7 -6 -7 -6 -8 -8 -8 -6 -7 -7 -7 -7 -7 -7 -6 -6 -6 -5 -5 -4 -4 -4 -3 -3 -2 -2 -1 -1 -1 -1 -0 0 0 1 0 0 0 0 -0 -2 -2 -1 -2 -1
-11 -10 -8 -8 -6 -5 -7 -7 -8 -8 -8 -8 -8 -9 -9 -8 -8 -8 -8 -8 -7 -7 -6 -6 -5 -5 -5 -4 -3 -3 -3 -2 -2 -2 -1 -1 -1 -1 -0 -0 -1 -1 -1 -2 -2 -2 -2 -2 -2
-12 -11 -11 -11 -9 -9 -9 -11 -10 -10 -9 -9 -9 -10 -10 -10 -9 -9 -9 -8 -8 -8 -7 -7 -6 -6 -5 -5 -5 -4 -4 -4 -3 -3 -3 -3 -2 -2 -2 -2 -2 -2 -2 -2 -2 -2 -2 -1 -1
-13 -13 -11 -11 -9 -8 -8 -9 -10 -13 -12 -12 -12 -12 -11 -11 -10 -10 -9 -9 -9 -9 -8 -8 -8 -7 -7 -6 -6 -5 -5 -5 -5 -4 -4 -4 -4 -3 -3 -3 -3 -3 -3 -2 -3 -3 -2 -3 -2
-14 -13 -13 -12 -11 -9 -8 -11 -14 -15 -15 -14 -13 -13 -12 -12 -12 -11 -11 -10 -10 -10 -9 -9 -9 -8 -8 -7 -7 -7 -6 -6 -6 -5 -5 -5 -5 -4 -4 -4 -4 -4 -3 -3 -3 -3 -3 -3 -3
-15 -15 -15 -13 -11 -11 -11 -13 -14 -15 -16 -15 -14 -14 -13 -13 -13 -12 -12 -11 -11 -11 -10 -10 -9 -9 -9 -8 -8 -8 -8 -7 -7 -7 -6 -6 -6 -6 -5 -5 -5 -5 -4 -4 -4 -4 -4 -4 -4
Height
3092 3094 3099 3102 3111 3103 3099 3103 3105 3103 3105 3108 3109 3112 3112 3113 3118 3122 3119 3119 3121 3123 3125 3126 3128 3131 3133 3134 3136 3139 3141 3143 3146 3147 3149 3151 3152 3153 3154 3155 3156 3157 3157 3157 3158 3158 3158 3157 3157
3089 3092 3097 3101 3101 3097 3096 3099 3100 3103 3103 3102 3105 3108 3112 3114 3113 3115 3116 3117 3118 3122 3123 3125 3127 3130 3132 3134 3136 3138 3141 3143 3146 3148 3149 3150 3152 3153 3154 3156 3157 3158 3158 3159 3159 3160 3159 3159 3159
3087 3090 3096 3095 3092 3089 3094 3096 3100 3101 3098 3101 3104 3105 3110 3110 3108 3111 3114 3116 3118 3120 3122 3124 3126 3128 3130 3134 3135 3137 3139 3142 3145 3147 3149 3150 3152 3153 3155 3156 3157 3157 3159 3159 3160 3161 3161 3161 3161
3084 3088 3089 3086 3083 3088 3092 3094 3096 3099 3098 3097 3101 3104 3104 3105 3106 3109 3112 3115 3117 3119 3120 3121 3124 3127 3129 3132 3134 3135 3138 3141 3143 3146 3148 3150 3151 3153 3154 3156 3156 3157 3158 3159 3160 3161 3161 3162 3162
3080 3086 3084 3079 3077 3085 3088 3091 3090 3093 3096 3096 3097 3101 3101 3102 3103 3106 3109 3113 3114 3116 3120 3119 3121 3124 3127 3129 3132 3134 3136 3140 3141 3145 3147 3149 3150 3152 3153 3155 3156 3157 3157 3158 3160 3161 3162 3162 3163
3076 3079 3077 3071 3077 3081 3085 3084 3086 3089 3091 3091 3093 3096 3099 3098 3100 3103 3106 3109 3111 3113 3116 3118 3120 3122 3125 3127 3129 3132 3134 3137 3139 3142 3145 3147 3148 3150 3152 3153 3155 3156 3157 3158 3159 3160 3161 3162 3163
3068 3071 3067 3070 3073 3077 3079 3079 3082 3087 3088 3090 3088 3093 3094 3093 3097 3099 3102 3105 3107 3109 3112 3115 3117 3118 3122 3125 3127 3129 3133 3134 3138 3140 3142 3144 3147 3148 3150 3152 3153 3155 3156 3157 3158 3160 3161 3162 3162
3065 3070 3065 3061 3068 3072 3074 3073 3077 3081 3086 3085 3085 3091 3092 3089 3093 3096 3098 3101 3103 3106 3109 3112 3114 3115 3116 3122 3125 3128 3131 3134 3137 3139 3141 3142 3144 3146 3148 3149 3151 3153 3154 3157 3158 3158 3160 3161 3162
3059 3062 3051 3056 3065 3069 3068 3066 3073 3073 3076 3080 3081 3083 3086 3086 3088 3091 3094 3097 3100 3102 3104 3107 3111 3113 3114 3114 3120 3125 3127 3130 3132 3135 3137 3139 3141 3144 3146 3149 3150 3152 3153 3154 3157 3158 3159 3161 3162
3051 3051 3050 3059 3062 3063 3063 3062 3069 3069 3072 3074 3076 3079 3081 3083 3084 3087 3090 3093 3095 3098 3100 3103 3107 3109 3112 3114 3114 3115 3123 3123 3127 3131 3134 3136 3139 3141 3143 3146 3147 3149 3151 3154 3156 3157 3160 3161 3162
3041 3038 3051 3051 3052 3054 3057 3058 3062 3064 3069 3069 3072 3070 3076 3079 3081 3083 3087 3089 3091 3094 3097 3099 3102 3105 3108 3108 3111 3113 3118 3120 3123 3124 3129 3132 3135 3137 3140 3142 3145 3147 3149 3151 3154 3157 3158 3160 3162
3036 3037 3044 3047 3044 3046 3050 3055 3056 3060 3065 3061 3066 3068 3071 3074 3076 3080 3082 3085 3088 3090 3092 3095 3097 3100 3102 3106 3107 3110 3111 3114 3118 3122 3124 3129 3132 3133 3136 3138 3141 3144 3147 3149 3151 3155 3157 3159 3161
3030 3034 3036 3038 3038 3038 3044 3046 3051 3054 3051 3057 3060 3063 3065 3067 3071 3075 3077 3080 3083 3086 3088 3091 3093 3096 3099 3103 3105 3107 3108 3110 3114 3119 3121 3125 3127 3130 3132 3133 3136 3139 3143 3146 3147 3151 3155 3156 3159
3026 3027 3030 3032 3033 3034 3038 3041 3044 3045 3046 3050 3054 3056 3058 3062 3066 3069 3072 3075 3078 3081 3084 3087 3090 3093 3096 3100 3102 3103 3106 3108 3109 3114 3117 3118 3118 3123 3125 3127 3131 3134 3138 3142 3144 3147 3151 3154 3156
3020 3021 3023 3024 3028 3031 3033 3032 3033 3043 3040 3043 3046 3049 3052 3056 3059 3064 3067 3070 3073 3076 3079 3082 3086 3089 3093 3096 3098 3100 3097 3104 3104 3107 3111 3112 3116 3114 3120 3122 3124 3128 3132 3136 3141 3141 3146 3150 3153
3015 3018 3018 3022 3023 3024 3028 3021 3033 3031 3033 3037 3040 3042 3046 3049 3053 3057 3061 3064 3067 3071 3074 3077 3081 3084 3088 3091 3094 3097 3097 3099 3101 3100 3102 3107 3112 3113 3116 3120 3121 3125 3128 3131 3135 3138 3142 3145 3149
3012 3011 3014 3017 3019 3022 3020 3021 3025 3025 3029 3031 3032 3034 3038 3042 3046 3050 3054 3057 3061 3064 3068 3071 3076 3080 3083 3085 3089 3093 3092 3094 3094 3099 3098 3101 3104 3109 3113 3116 3117 3120 3125 3129 3131 3132 3137 3139 3141
3008 3009 3010 3012 3016 3015 3017 3017 3015 3020 3023 3026 3027 3028 3031 3035 3039 3044 3047 3050 3053 3057 3061 3065 3070 3073 3077 3081 3084 3087 3090 3091 3092 3094 3097 3101 3103 3106 3107 3111 3116 3117 3121 3123 3126 3129 3134 3135 3138
3005 3006 3007 3010 3011 3010 3012 3014 3015 3015 3018 3019 3020 3022 3024 3028 3032 3036 3040 3042 3045 3049 3053 3057 3063 3069 3071 3072 3077 3081 3083 3084 3087 3091 3095 3096 3099 3102 3103 3103 3106 3112 3115 3115 3120 3122 3125 3127 3131
3002 3003 3005 3007 3007 3007 3009 3009 3008 3008 3011 3013 3015 3017 3017 3020 3025 3030 3033 3035 3039 3042 3045 3049 3055 3060 3063 3065 3071 3074 3077 3080 3084 3087 3089 3091 3094 3098 3098 3101 3103 3105 3108 3113 3115 3117 3119 3120 3123
2997 2998 3001 3004 3004 3003 3006 3004 3003 3004 3006 3009 3011 3012 3013 3016 3018 3022 3027 3029 3032 3036 3039 3043 3047 3052 3057 3061 3062 3067 3071 3071 3076 3081 3085 3086 3089 3091 3093 3095 3098 3099 3103 3104 3105 3110 3114 3116 3119
2992 2996 2997 3000 3002 3000 3003 2995 2998 2996 2999 3001 3004 3007 3009 3012 3014 3017 3021 3024 3027 3031 3035 3038 3042 3046 3049 3051 3056 3058 3064 3068 3071 3074 3078 3081 3083 3086 3087 3090 3092 3095 3096 3098 3101 3098 3103 3109 3111
2990 2992 2994 2996 2997 2999 2998 2998 2992 2992 2992 2994 2998 3002 3004 3007 3010 3012 3016 3019 3022 3026 3029 3032 3036 3040 3042 3046 3051 3054 3058 3065 3065 3069 3072 3075 3077 3080 3082 3084 3087 3090 3091 3093 3095 3097 3099 3102 3104
2987 2989 2991 2993 2994 2991 2987 2992 2986 2987 2987 2989 2992 2994 2998 3002 3004 3007 3011 3014 3017 3021 3024 3028 3031 3035 3039 3042 3045 3048 3052 3057 3059 3062 3066 3068 3071 3073 3077 3079 3082 3083 3084 3086 3089 3093 3094 3096 3098
2986 2989 2987 2986 2983 2977 2979 2983 2982 2981 2983 2984 2985 2988 2991 2996 2999 3002 3006 3009 3013 3016 3019 3023 3026 3029 3032 3035 3039 3042 3046 3050 3052 3055 3059 3062 3065 3068 3070 3072 3074 3076 3078 3080 3084 3087 3088 3090 3092
2983 2986 2982 2973 2970 2969 2972 2973 2975 2977 2979 2980 2981 2983 2987 2991 2995 2998 3001 3005 3008 3011 3014 3017 3020 3023 3026 3030 3033 3036 3039 3042 3045 3048 3052 3054 3058 3061 3063 3066 3068 3070 3072 3075 3077 3080 3082 3084 3085
2982 2982 2982 2978 2974 2973 2969 2970 2971 2972 2973 2975 2978 2980 2983 2986 2989 2992 2996 2999 3003 3006 3009 3012 3015 3018 3021 3023 3026 3028 3031 3034 3038 3041 3044 3047 3050 3053 3056 3059 3061 3064 3066 3069 3071 3074 3074 3077 3078
2979 2980 2980 2979 2975 2967 2966 2968 2969 2970 2970 2973 2975 2977 2980 2983 2985 2987 2990 2993 2996 3000 3003 3006 3008 3011 3014 3017 3020 3023 3025 3028 3031 3034 3037 3040 3043 3046 3049 3051 3054 3057 3059 3061 3064 3066 3068 3069 3071
2980 2979 2979 2977 2975 2968 2963 2969 2970 2971 2971 2972 2974 2975 2977 2979 2981 2983 2985 2987 2990 2993 2997 3000 3003 3006 3008 3011 3014 3016 3019 3022 3024 3027 3030 3033 3036 3039 3042 3044 3047 3050 3052 3055 3057 3058 3060 3062 3064
2980 2979 2979 2978 2974 2972 2971 2973 2970 2970 2971 2973 2974 2975 2976 2977 2979 2981 2982 2984 2986 2989 2991 2994 2997 3000 3002 3005 3007 3010 3013 3015 3018 3021 3024 3027 3030 3033 3036 3038 3041 3043 3046 3048 3050 3051 3053 3056 3057
Wind_Speed
16 15 14 14 8 12 20 21 15 7 8 13 15 10 11 21 20 11 6 14 19 12 16 18 18 17 15 15 16 15 16 15 14 11 9 6 4 3 4 3 4 5 6 7 7 8 9 9 10
19 16 16 9 13 21 19 16 16 12 11 14 18 20 10 12 24 24 11 13 15 17 15 20 20 19 17 15 16 16 18 16 14 13 11 8 6 4 4 3 3 5 4 5 4 6 6 7 8
20 19 12 11 19 29 19 11 17 13 14 7 7 16 13 18 24 28 28 23 33 21 19 19 21 21 20 18 17 17 20 18 16 14 12 11 9 6 5 4 3 3 3 3 3 3 4 5 5
22 22 21 21 26 15 20 14 10 15 17 16 14 5 21 25 26 27 26 24 22 26 22 21 23 23 23 20 18 20 20 21 18 15 14 12 11 10 8 5 3 2 2 1 1 1 2 2 2
25 15 21 26 31 22 15 13 16 10 15 11 18 15 12 19 25 22 22 24 24 20 28 22 24 25 25 23 21 21 21 22 20 18 15 15 14 12 12 9 7 5 4 3 3 2 2 1 1
27 22 21 35 27 20 20 20 16 8 10 12 13 16 19 21 18 23 26 26 31 28 21 30 22 26 27 26 24 23 22 23 23 21 18 16 15 14 12 10 9 7 5 4 4 4 3 2 2
28 24 32 29 25 21 22 19 19 18 14 10 18 10 19 23 21 20 25 25 31 31 26 22 29 23 28 28 26 26 25 26 23 24 23 20 17 16 14 12 10 9 7 6 6 5 5 4 4
31 24 30 36 31 26 20 21 15 19 15 22 24 8 14 21 20 21 22 27 27 34 33 28 28 29 28 29 27 25 24 22 22 22 22 22 22 20 18 17 15 13 11 9 8 7 7 6 6
33 28 38 33 26 23 24 18 17 24 22 25 26 26 21 23 19 23 22 26 27 25 32 35 35 32 32 29 26 26 30 26 26 23 22 23 23 22 20 17 16 16 14 13 11 9 9 8 8
36 33 32 21 20 23 20 23 14 19 19 22 22 26 28 21 19 19 24 26 28 25 25 29 38 28 29 39 35 23 27 26 29 26 25 25 24 24 23 22 20 19 17 16 14 12 10 10 10
37 43 28 17 24 30 18 17 17 19 16 15 17 31 30 28 24 22 24 27 27 29 28 31 31 43 28 31 34 42 24 27 21 25 24 24 23 23 24 26 25 21 20 20 17 15 13 11 11
34 31 31 18 27 34 34 23 22 20 20 26 23 25 29 34 32 30 25 28 28 26 29 28 27 26 24 23 26 24 26 18 26 21 24 23 24 24 23 25 28 27 24 21 19 16 15 14 13
29 26 25 32 29 28 24 27 20 20 34 31 33 30 26 30 34 32 33 30 30 31 31 30 28 29 26 25 26 25 35 25 27 25 21 26 28 27 23 22 25 27 27 26 24 22 19 17 17
16 22 28 22 29 33 31 25 25 30 35 34 31 31 34 35 30 31 34 36 33 32 34 33 34 30 28 27 27 28 29 25 24 26 34 17 26 23 32 25 27 30 27 25 23 25 24 21 21
26 21 25 30 28 25 18 32 33 27 34 33 33 32 32 30 34 35 33 34 39 36 36 35 33 31 32 30 25 25 30 25 28 24 36 30 32 19 15 17 35 28 26 27 22 25 27 26 24
19 21 25 23 22 21 24 35 24 34 37 39 37 35 34 32 31 34 38 36 36 39 39 38 37 35 36 31 28 33 25 22 31 34 24 23 39 34 31 18 19 24 30 29 31 27 30 24 29
16 19 19 18 20 23 20 20 28 31 34 36 38 40 39 39 37 36 35 40 39 38 41 39 38 39 39 29 33 29 34 26 25 26 19 14 16 26 28 21 23 20 13 29 35 33 34 34 28
19 20 19 20 15 17 24 23 26 24 29 33 36 37 38 36 36 35 35 38 39 40 39 41 41 38 37 38 35 40 34 38 33 21 26 20 18 22 21 30 22 11 22 31 28 32 34 39 40
19 14 15 14 15 16 16 23 26 29 28 29 32 35 37 35 34 35 34 37 41 40 40 40 43 43 39 30 43 34 35 27 23 24 29 18 21 23 18 21 16 14 11 12 24 25 39 44 41
19 19 20 18 17 16 16 21 21 24 30 32 30 30 34 35 33 34 33 35 37 40 39 40 42 46 42 39 42 52 36 35 31 32 29 27 23 22 21 21 22 16 16 14 15 30 43 35 33
18 19 18 18 14 18 15 22 25 30 31 31 33 32 31 32 34 36 35 32 32 35 35 35 39 44 46 44 44 42 47 29 29 29 27 25 23 24 24 25 25 24 22 20 16 25 30 33 43
18 14 18 18 18 21 15 14 23 30 29 32 34 34 32 32 33 34 36 35 30 29 31 33 35 36 38 38 38 32 26 30 29 28 25 23 22 23 23 24 25 26 25 24 22 21 24 35 32
15 16 12 14 19 19 18 12 23 17 24 29 33 34 34 34 33 34 34 34 32 29 29 28 28 31 30 33 32 26 27 31 27 27 26 25 24 24 25 26 26 26 27 31 25 22 20 22 26
14 11 12 14 15 13 31 23 20 21 25 25 30 34 34 36 36 34 33 32 30 29 27 27 27 27 27 27 28 29 26 29 27 27 27 26 26 27 27 29 28 28 28 30 29 30 28 29 28
13 9 8 11 11 11 18 22 21 15 21 23 28 32 34 35 36 34 33 32 31 29 28 27 26 25 26 26 26 27 28 30 28 28 28 27 28 29 29 30 29 28 28 27 31 33 31 29 27
9 15 14 9 12 15 16 11 13 27 25 14 21 27 32 33 33 32 31 30 30 29 28 28 28 28 27 28 29 29 29 29 29 29 30 29 29 29 29 30 30 28 28 27 28 31 31 30 31
5 12 15 9 17 6 5 6 10 20 17 22 18 21 28 29 30 31 31 30 28 28 28 28 28 29 29 29 29 30 29 29 29 30 29 29 29 29 29 30 30 29 28 29 29 28 28 29 32
9 9 5 10 6 11 2 2 2 8 14 15 17 20 23 25 26 28 29 28 27 28 28 28 28 28 28 29 29 29 29 29 29 28 28 29 29 30 30 30 30 30 29 29 29 30 29 30 29
3 3 4 9 4 6 6 5 4 5 8 12 15 18 20 22 23 24 25 27 28 28 28 28 28 28 28 28 28 28 28 28 28 28 28 28 29 29 30 30 30 29 29 29 28 28 28 28 30
5 7 4 5 4 2 3 2 6 9 7 8 9 12 14 16 18 20 21 23 24 26 27 28 28 27 27 27 28 28 28 28 28 28 29 29 29 30 30 30 29 29 29 29 29 28 28 28 27
Wind_Direction
220 212 203 194 208 232 241 236 232 230 222 202 212 205 237 196 191 209 231 230 228 223 213 207 199 202 198 195 190 193 190 192 190 194 197 187 179 156 150 107 77 78 78 75 74 75 73 73 77
217 210 200 197 227 233 246 242 229 228 223 228 223 215 196 221 226 230 216 226 224 225 214 213 207 203 206 195 200 197 191 192 195 199 202 202 198 188 165 141 93 79 81 82 69 72 73 77 75
217 206 206 214 237 234 242 248 231 234 238 185 207 223 210 223 227 228 229 240 231 237 216 211 213 207 205 211 204 198 187 194 197 199 210 207 203 204 197 172 140 104 82 81 79 69 68 68 77
210 208 208 227 233 236 234 244 228 225 228 229 208 223 220 219 233 233 228 219 216 217 230 210 212 212 209 211 210 201 193 194 197 201 209 216 211 207 215 215 204 186 165 163 144 113 95 72 69
210 205 228 240 241 235 240 221 230 224 224 241 229 218 248 230 237 233 226 221 215 218 227 219 214 215 212 210 211 206 201 199 199 201 202 209 216 216 221 222 234 238 220 213 203 180 173 164 168
210 206 229 237 244 241 233 233 242 216 212 236 231 231 241 246 231 233 229 232 226 230 226 231 225 220 216 213 211 212 207 202 202 203 205 211 217 217 221 225 224 223 223 208 211 204 199 199 209
212 216 232 243 246 241 237 236 229 233 237 246 241 225 235 250 237 236 231 230 222 233 232 234 232 227 222 220 219 219 215 212 209 207 206 210 218 223 222 220 219 215 219 218 210 214 214 211 202
219 224 241 240 241 242 247 237 227 232 235 234 245 249 236 248 233 231 231 227 227 231 233 236 236 240 229 222 222 219 220 218 216 217 216 217 220 222 226 223 218 220 218 228 223 212 214 210 203
216 220 235 238 239 243 233 236 231 232 219 237 237 234 233 244 232 226 230 227 228 232 236 235 232 234 227 223 222 221 221 218 216 215 219 223 224 227 230 232 235 236 230 223 223 221 213 211 207
218 222 238 239 241 238 231 239 216 244 245 227 241 236 233 234 231 224 221 226 229 233 238 224 225 224 230 239 215 246 227 218 212 221 224 231 234 234 234 233 229 226 227 230 224 216 217 213 205
223 229 233 247 224 224 217 231 223 235 226 237 234 237 230 230 229 229 224 223 229 230 232 230 236 232 243 241 237 254 237 235 236 221 223 228 234 235 238 236 235 233 231 228 226 223 214 213 208
231 234 231 224 249 241 232 236 239 244 232 236 236 243 239 235 237 232 231 230 227 226 225 231 234 233 233 229 246 255 237 260 239 240 220 228 230 231 239 240 235 237 234 223 223 226 224 213 213
234 226 240 227 237 235 227 236 237 234 237 238 242 242 240 240 237 237 235 233 233 230 228 231 234 240 233 232 232 237 248 261 255 248 238 227 231 233 234 234 234 235 237 232 222 227 227 223 219
239 246 235 248 239 244 243 241 238 243 250 248 248 244 242 241 241 235 236 234 233 235 234 231 232 238 233 232 233 244 243 237 248 260 257 213 201 207 214 222 229 227 231 234 235 231 229 225 224
225 247 244 238 240 242 250 246 239 242 253 252 249 245 244 243 240 237 235 234 234 236 235 235 237 233 230 234 228 241 222 242 257 241 244 241 239 231 218 226 217 204 214 218 211 227 228 239 234
238 245 247 244 237 241 232 253 251 241 244 249 247 246 245 244 240 237 232 234 232 232 235 232 236 237 236 239 240 234 220 249 221 208 198 221 238 248 254 251 201 208 225 233 230 235 239 248 244
235 241 241 244 230 230 227 250 239 243 245 248 249 249 247 246 245 243 238 233 234 233 233 229 232 237 241 231 235 230 227 206 204 230 239 240 244 233 240 236 222 227 256 234 232 229 229 230 235
234 242 247 246 233 233 232 239 248 240 239 243 251 253 249 247 246 246 242 236 236 236 235 230 226 233 236 237 232 228 235 248 248 252 266 286 284 282 285 260 262 274 261 284 249 250 245 239 238
258 270 261 244 240 233 242 241 248 246 242 240 243 248 249 248 244 240 243 238 233 236 235 232 229 234 230 227 236 227 218 235 261 252 260 260 277 275 274 277 274 262 298 288 287 252 245 245 243
245 252 252 253 243 246 245 245 242 241 239 241 243 244 244 241 240 237 239 241 238 235 234 231 231 231 232 236 241 233 237 232 244 248 257 263 267 264 264 272 275 245 232 261 279 255 237 234 247
243 243 249 250 245 247 252 249 240 249 249 248 246 243 242 241 237 234 238 243 242 239 237 237 233 232 234 237 235 245 244 252 245 249 253 256 260 264 265 267 266 264 249 228 233 267 262 247 234
252 252 252 248 247 249 232 256 245 243 246 244 242 241 239 240 238 237 235 239 242 236 233 233 233 234 234 235 240 243 241 241 241 241 242 247 251 257 262 264 264 261 257 258 250 231 242 242 257
257 252 246 245 244 248 242 244 249 223 241 242 242 239 237 237 237 236 234 233 234 233 231 233 229 230 236 239 234 231 230 240 233 238 241 244 250 253 258 260 260 258 257 249 258 247 249 253 254
237 247 245 246 239 235 235 224 249 215 234 246 239 235 235 234 233 233 233 232 231 229 227 226 225 227 229 228 228 232 236 235 235 239 242 244 248 251 253 255 255 256 255 255 246 256 246 248 259
243 228 232 228 219 238 240 224 228 221 233 233 243 232 229 230 232 230 228 227 228 229 231 230 231 232 232 235 238 237 236 237 239 242 243 241 244 246 248 252 254 251 251 245 239 250 244 254 248
218 228 242 246 243 242 211 217 217 235 241 246 247 235 227 227 230 231 232 230 229 231 232 232 233 236 236 236 237 240 239 239 239 237 240 240 240 242 245 247 250 249 251 243 247 243 247 252 249
225 236 246 298 279 274 185 210 232 235 237 237 238 230 224 224 225 228 230 230 231 232 234 235 236 236 236 237 237 237 238 238 238 237 235 236 239 240 243 244 246 247 245 243 244 242 249 251 247
253 282 254 227 259 255 163 219 104 238 231 226 220 220 222 225 226 226 225 225 228 229 230 231 229 228 228 230 231 232 233 233 234 235 235 235 236 238 239 241 241 243 244 245 245 245 248 244 249
358 336 265 292 278 271 268 95 206 201 236 220 221 220 219 221 223 224 224 223 222 224 227 230 229 227 228 229 231 232 232 233 232 232 234 234 235 236 237 239 240 241 242 243 244 246 247 247 248
47 19 11 290 14 250 282 73 343 213 209 214 219 222 224 224 224 224 224 225 226 225 226 229 232 232 232 234 236 237 237 236 236 236 235 235 235 236 236 237 239 240 241 241 242 244 245 246 248